Location: Bismarck
(46.7731°N, 100.8200°W)
Time: 08:32:40
(UTC-06:00)

Daily predictions for brighter satellites

Satellite Brightness Start Highest point End
(mag) Time Altitude Azimuth Time Altitude Azimuth Time Altitude Azimuth
Okean 1 Rocket 3.4 17:26:11 10° NNW 17:30:31 69° W 17:34:50 10° S
Cosmos 1633 2.9 17:26:56 10° NNW 17:30:31 70° W 17:34:04 10° S
Cosmos 1484 Rocket 4.3 17:29:31 10° E 17:31:36 14° ENE 17:33:40 10° NNE
Cosmos 1048 Rocket 4.4 17:26:38 10° NNW 17:31:56 72° WSW 17:37:15 10° SSE
Cosmos 1544 Rocket 4.1 17:30:54 10° N 17:35:04 37° ENE 17:39:12 10° SE
COSMO-SKYMED 1 4.4 17:35:04 10° ENE 17:37:02 13° E 17:38:59 10° ESE
SL-16 R/B 4.1 17:33:29 10° N 17:38:50 32° WNW 17:44:11 10° WSW
EO 1 Del DPAF 4.1 17:37:02 10° N 17:40:51 53° WNW 17:44:37 10° SSW
Cosmos 1975 Rocket 3.0 17:37:31 10° S 17:41:47 62° E 17:46:04 10° NNE
Cosmos 2263 Rocket 3.4 17:43:40 10° WSW 17:48:53 38° NW 17:54:10 10° NNE
PAYLOAD A 4.0 17:47:41 10° SSE 17:52:31 88° WSW 17:57:34 10° NNW
Cosmos 1536 Rocket 4.4 17:54:32 10° SSE 17:58:28 31° E 18:02:26 10° NNE
SJ-7 4.5 17:55:47 10° SSE 17:59:57 63° ENE 18:04:11 10° N
GEOS 3 Rocket 4.0 17:56:22 10° ESE 18:01:08 42° NE 18:05:57 10° NNW
Cosmos 1536 4.1 17:58:38 10° NNW 18:02:32 46° W 18:06:26 10° SSW
BREEZE-M DEB (TANK) 1.5 18:00:36 10° WSW 18:02:49 64° SSE 18:04:10 21° ENE
Okean 1 4.2 18:00:35 10° SSE 18:04:07 29° E 18:07:29 11° NNE
YAOGAN 1 2.5 18:02:19 10° SSE 18:06:39 79° ENE 18:11:00 10° N
SPOT 3 Rocket 3.5 18:01:55 10° SSE 18:07:07 89° ENE 18:12:20 10° NNW
Cosmos 1812 3.1 18:04:12 10° SSE 18:07:52 43° E 18:11:33 10° NNE
COSMOS 2487 3.4 18:05:45 10° N 18:08:53 27° ENE 18:11:58 10° ESE
Cosmos 372 Rocket 4.3 18:03:47 10° SSW 18:09:01 69° WNW 18:14:17 10° NNE
CZ-3A R/B 3.5 18:05:06 10° WSW 18:09:51 83° NNW 18:30:40 15° ENE
USA 234 3.3 18:03:52 13° NE 18:09:53 83° SE 18:16:26 10° SW
CZ-4 R/B 4.4 18:06:25 10° SSE 18:10:32 65° ENE 18:14:40 10° N
Meteor 1-18 Rocket 4.3 18:06:31 10° S 18:12:00 55° E 18:17:37 10° NNE
Cosmos 375 4.5 18:07:44 10° NW 18:12:31 64° NE 18:16:25 10° SE
ISS -3.4 18:09:43 10° WSW 18:13:01 88° SSE 18:14:52 24° ENE
Cosmos 1844 Rocket 2.7 18:08:25 10° SSW 18:14:01 88° ESE 18:19:42 10° NNE
AQUARIUS 4.3 18:12:03 10° S 18:16:32 78° WSW 18:21:04 10° NNW
BREEZE M DEB (TANK) 2.7 18:13:41 10° WNW 18:16:33 64° NNE 18:21:53 16° E
NOSS 3-4 (A) 4.4 18:11:15 10° NNW 18:17:25 34° NNE 18:21:59 18° E
NOSS 3-4 (C) 4.4 18:11:21 10° NNW 18:17:30 34° NNE 18:22:02 18° E
ASTRO F (AKARI) 4.5 18:17:59 20° NE 18:19:49 46° E 18:22:51 10° S
USA 32 4.0 18:14:42 10° S 18:19:55 89° ESE 18:25:11 10° N
Cosmos 1346 Rocket 3.7 18:16:35 10° SSE 18:19:55 27° E 18:20:56 24° ENE
SL-8 Rocket 4.3 18:16:46 10° NNW 18:22:55 71° W 18:29:01 10° S
Cosmos 1455 Rocket 3.0 18:20:10 10° N 18:24:36 88° W 18:29:02 10° S
SKYMED 2 4.1 18:22:43 18° NE 18:25:33 37° E 18:29:35 10° SSE
Cosmos 494 Rocket 4.1 18:20:27 10° NNW 18:25:42 81° WSW 18:30:58 10° SSE
NOSS 3-3 (A) 4.3 18:21:15 10° SSW 18:27:12 49° ESE 18:31:29 21° NE
NOSS 3-3 (C) 4.3 18:21:22 10° SSW 18:27:18 49° ESE 18:31:34 21° NE
IDEFIX/ARIANE 42P 3.0 18:22:41 10° S 18:27:51 66° WSW 18:33:02 10° NNW
CORIOLIS 4.4 18:23:36 10° S 18:29:00 72° WSW 18:34:24 10° NNW
ERBS 4.4 18:27:10 10° NW 18:29:14 15° N 18:29:43 15° NNE
Cosmos 1844 3.6 18:25:25 10° SSW 18:30:59 90° SE 18:35:58 13° NNE
Okean 1-7 Rocket 4.5 18:28:21 10° SE 18:32:09 27° E 18:32:13 27° E
ATLAS 2AS CENTAUR R/B 3.5 18:25:10 10° NW 18:33:10 64° WSW 18:40:39 10° SSE
Cosmos 2297 4.5 18:28:38 10° SSE 18:33:28 30° ESE 18:35:04 26° ENE
Cosmos 2366 rocket 4.2 18:27:50 10° N 18:34:13 79° W 18:40:31 10° S
BREEZE-M DEB (TANK) 4.0 18:26:07 10° W 18:34:18 62° N 18:35:51 32° ENE
Abrixas 2.3 18:31:41 10° WNW 18:34:38 75° N 18:35:12 54° E
Cosmos 2218 Rocket 4.5 18:32:42 10° NNW 18:38:56 65° W 18:45:04 10° S
CZ-4 R/B 3.4 18:36:24 10° SSW 18:40:10 32° W 18:43:55 10° NNW
Thor Agena Rocket 3.9 18:35:49 10° N 18:40:58 65° WNW 18:46:10 10° SSW
SL-24 DEB 4.2 18:36:55 10° N 18:41:42 80° E 18:46:25 10° S
MSX 4.0 18:37:02 10° S 18:42:47 74° WSW 18:48:33 10° NNW
SMAP 4.3 18:39:01 10° S 18:43:26 43° W 18:47:54 10° NNW
Cosmos 1934 Rocket 4.5 18:37:54 10° N 18:43:31 35° ENE 18:49:10 10° SE
Cosmos 1809 Rocket 4.3 18:38:59 10° N 18:45:10 76° E 18:51:17 10° SSE
Cosmos 1975 2.9 18:41:34 10° NNW 18:45:40 78° W 18:49:41 10° S
Cosmos 2278 Rocket 2.1 18:41:48 10° SSW 18:47:27 77° ESE 18:51:13 22° NNE
Cosmos 1238 Rocket 3.2 18:45:05 10° SSW 18:47:56 44° WNW 18:50:18 15° N
CZ-2C R/B 3.9 18:46:01 10° SSW 18:50:41 40° W 18:55:30 10° NNW
Timation 2 Rocket 4.1 18:46:58 10° NNW 18:53:48 76° ENE 19:00:41 10° SE
Genesis I 3.4 18:51:57 10° NW 18:55:53 72° SW 18:58:26 21° SSE
OPS 8737 4.4 18:53:27 10° SW 18:56:39 65° NW 18:56:58 60° NNW
Meteor 1-19 Rocket 4.4 18:52:44 10° SSE 18:58:16 48° E 19:00:54 29° NE
Cosmos 2239 Rocket 4.5 18:53:17 10° N 18:59:26 57° ENE 19:05:29 10° SSE
Cosmos 1743 4.2 19:01:45 10° N 19:10:05 - SSE 19:03:30 25° N
Cosmos 1484 Rocket 3.5 19:02:02 10° S 19:05:42 50° W 19:09:20 10° NNW
NOAA 12 3.9 19:02:43 10° SSE 19:07:59 75° ENE 19:13:15 10° N
SL-8 R/B 3.7 19:03:26 10° SW 19:08:09 63° SSE 19:08:49 56° ESE
DMSP B5D1-3 4.4 19:05:50 26° NNE 19:08:51 76° ESE 19:13:58 10° S
Cosmos 1821 Rocket 3.8 19:03:00 10° N 19:09:04 64° ENE 19:15:07 10° SSE
Cosmos 2082 Rocket 2.1 19:04:23 10° NNW 19:10:05 84° ENE 19:15:47 10° SSE
Cosmos 1833 Rocket 2.5 19:05:54 10° NNW 19:11:35 75° ENE 19:14:56 25° SE
COSMO-SKYMED 1 2.8 19:11:18 26° N 19:13:40 70° WNW 19:18:00 10° SSW
Cosmos 1500 4.4 19:11:18 10° NNW 19:14:56 42° W 19:18:34 10° SSW
Meteor 1-13 Rocket 4.1 19:09:57 10° S 19:15:38 80° E 19:19:43 21° NNE
METEOR-M 4.0 19:11:03 10° SSE 19:16:21 75° ENE 19:21:43 10° N
Meteor 1-28 Rocket 4.1 19:20:30 40° S 19:20:30 40° S 19:22:59 10° SSW
Cosmos 1605 Rocket 4.4 19:13:17 10° N 19:18:04 40° NE 19:18:04 40° NE
CZ-3B DEB 2.9 19:21:51 10° WSW 19:26:32 74° NNW 19:30:54 36° NE
BREEZE-M R/B 3.5 19:21:01 10° WSW 19:30:01 81° SSE 19:30:32 72° E
Tiangong 1 4.1 19:28:39 10° SSW 19:28:54 11° SSW 19:28:54 11° SSW
SL-24 R/B - RUBIN 2 4.4 19:27:43 10° SSW 19:34:08 84° SE 19:35:38 57° NE
Nadezhda 3 Rocket 4.3 19:28:52 10° SSW 19:35:02 67° W 19:41:19 10° N
Timation 1 Rocket 4.1 19:32:32 10° SSW 19:38:29 76° ESE 19:38:38 76° E
Meteor 2-4 Rocket 4.0 19:36:47 10° S 19:40:40 49° S 19:40:40 49° S
Meteor 2-9 Rocket 4.1 19:41:04 10° NNW 19:46:01 72° NNW 19:46:01 72° NNW
ISS -0.3 19:46:41 10° WNW 19:47:33 16° WNW 19:47:33 16° WNW
USA 234 3.8 19:51:13 41° NNE 19:52:37 46° NNW 19:58:47 10° W
Cosmos 921 Rocket 4.5 19:49:03 10° SSW 19:51:27 32° SW 19:51:27 32° SW
BREEZE-M DEB (TANK) 4.1 19:50:42 10° W 20:06:56 56° N 20:07:09 56° N
NOSS 3-4 (A) 3.7 20:02:03 10° NW 20:09:01 79° SW 20:09:29 76° SSW
NOSS 3-4 (C) 3.7 20:02:09 10° NW 20:09:08 80° SW 20:09:32 77° SSW
FALCON 9 R/B 3.9 20:00:19 10° WSW 20:14:31 35° SSW 20:15:38 34° S
Cosmos 2278 Rocket 4.1 20:27:48 10° W 20:32:11 22° NW 20:33:06 22° NNW
